Weather in Bakur

Russia / Komi Republic     65°02′29″N   53°51′03″E
temp.,
°C
wind,
m/s
gust,
m/s
humid.,
%
clouds,
%
prec.,
mm/h
press.,
hPa
HPBL,
m
13 april, tue
tue1300:00+2sw31178100 0.0 1028405
03:00+2ssw31192100 0.6 1026587
06:00+5sw41395100 0.1 1024664
09:00+7sw51490100 0.1 1023677
12:00+9sw51381100 0.0 1021911
15:00+7sw41295100 4.0 1019715
18:00+7wsw41290100 0.6 1018774
21:00+6wsw31193100 0.6 1018523
14 april, wed
wed1400:00+6wsw41095100 0.0 1018423
03:00+6sw399398 0.0 1018321
06:00+6ssw31093100 0.0 1017336
09:00+9sw41085100 0.0 1015733
12:00+10sw51080100 0.0 1014935
15:00+9sw51289100 0.3 1012885
18:00+8ssw2996100 3.6 1008406
21:00+6nw61391100 10.3 1009773
15 april, thu
thu1500:00+3wnw31089100 1.4 1011796
03:00+3wnw51081100 1.6 10131218
06:00+1wnw51074100 0.0 10151156
09:00+2wnw5106194 0.1 10171424
12:00+4nw6947100 0.1 10182128
15:00+3nw5851100 0.3 10201718
18:00+1n2572100 0.4 1022734
21:000ese2384100 0.6 1023291
16 april, fri
fri1600:00−1ese249393 2.2 1024300
03:00−2ssw129478 2.6 1025151
06:00−1wnw237899 0.1 1026722
09:000wnw346296 0.1 10261112
12:00+3wnw4653100 0.1 10261603
15:00+3wnw475389 0.3 10251531
18:00+1nnw486836 0.3 10261120
21:00−2nne377889 0.4 1028552
17 april, sat
sat1700:00−5ene3666100 0.0 1029539
03:00−5ese2346100 0.0 1029490
06:00−4se3543100 0.0 1027590
09:00−2sse4635100 0.1 1025859
12:00−1sse5835100 0.3 10231337
15:000sse4639100 0.3 10231525
18:00−1sw1145100 0.0 1025100
21:00−3n1163100 0.0 102734